Regional Weather Roundup
Issued by NWS

Home | Current Version | Previous Version | Graphics & Text | Print | Product List | Glossary On
Versions: 1 2 3 4 5 6 7 8 9 10 11 12 13 14 15 16 17 18 19 20 21 22 23 24 25 26 27 28 29 30 31 32 33 34 35 36 37 38 39 40 41 42 43 44 45 46 47 48 49 50
203
ASUS44 KLIX 160605
RWRLA
LOUISIANA WEATHER ROUNDUP
NATIONAL WEATHER SERVICE NEW ORLEANS LA
100 AM CDT TUE SEP 16 2014

NOTE: "FAIR" INDICATES FEW OR NO CLOUDS BELOW 12,000 FEET WITH NO
      SIGNIFICANT WEATHER AND/OR OBSTRUCTIONS TO VISIBILITY.
      SKY/WX - SKY CONDITION AND SIGNIFICANT WEATHER.
      TMP - AIR TEMPERATURE.    DP   - DEWPOINT TEMPERATURE.
      RH  - RELATIVE HUMIDITY.  PRES - PRESSURE.
      HX  - HEAT INDEX.         WCI  - WIND CHILL INDEX.

*  THESE STATIONS ARE NOT NWS OR FAA STATIONS AND ARE NOT UNDER
   NWS QUALITY CONTROL.

LAZ040-048-061>063-065-066-069-160700-
SOUTHEAST LOUISIANA

CITY           SKY/WX    TMP DP  RH WIND       PRES   REMARKS
N.O. AUDUBON     N/A     78  78 100 MISG        N/A
6HR MIN TEMP:  78; 6HR MAX TEMP:  83;

N.O. INTL ARPT MOCLDY    77  75  93 CALM      30.08F
6HR MIN TEMP:  77; 6HR MAX TEMP:  80;

N.O. LAKEFRONT PTCLDY    81  76  84 W5        30.08F
6HR MIN TEMP:  80; 6HR MAX TEMP:  82;

N.O. DOWNTOWN* FAIR      81  73  78 CALM      30.08F
6HR MIN TEMP:  81; 6HR MAX TEMP:  84;

SLIDELL        PTCLDY    76  73  91 CALM      30.07F
6HR MIN TEMP:  76; 6HR MAX TEMP:  82;

BATON ROUGE    PTCLDY    75  73  93 E3        30.08F
6HR MIN TEMP:  75; 6HR MAX TEMP:  78; 6HR PCP: TRACE;

BOOTHVILLE     CLEAR     82  77  84 SW6       30.07F
6HR MIN TEMP:  80; 6HR MAX TEMP:  83;

BELLE CHASSE   PTCLDY    77  72  84 CALM      30.07F
6HR MIN TEMP:  76; 6HR MAX TEMP:  81;

BOGALUSA*      FAIR      76  73  88 CALM      30.10S
6HR MIN TEMP:  76; 6HR MAX TEMP:  86; 6HR PCP:  0.05;

GALLIANO*      NOT AVBL
NEW ROADS*     FAIR      75  74  96 CALM      30.08F
6HR MIN TEMP:  75; 6HR MAX TEMP:  82;

GONZALES*      FAIR      75  75 100 N3        30.08S FOG
6HR MIN TEMP:  74; 6HR MAX TEMP:  77;

HAMMOND*       MOCLDY    77  73  88 CALM      30.10F
HOUMA*         MOCLDY    76  73  89 CALM      30.08S
6HR MIN TEMP:  75; 6HR MAX TEMP:  79;

PORT FOURCHON* CLEAR     82  75  78 CALM      30.11F

$$

LAZ041-044-053-054-160700-
SOUTHWEST LOUISIANA

CITY           SKY/WX    TMP DP  RH WIND       PRES   REMARKS
LAKE CHARLES   CLEAR     78  75  90 NE6       30.07F
6HR MIN TEMP:  78; 6HR MAX TEMP:  83; 6HR PCP: TRACE;

LAFAYETTE      CLEAR     75  74  96 CALM      30.08F
6HR MIN TEMP:  74; 6HR MAX TEMP:  77; 6HR PCP:  0.02;

PATTERSON      PTCLDY    75  75 100 CALM      30.10S
6HR MIN TEMP:  75; 6HR MAX TEMP:  79;

SALT POINT       N/A     81  77  88 CALM      30.06F
6HR MIN TEMP:  80; 6HR MAX TEMP:  86;

NEW IBERIA     PTCLDY    75  73  93 N5        30.08F
6HR MIN TEMP:  75; 6HR MAX TEMP:  77;

CHENAULT AIRPK CLEAR     77  72  84 NE3       30.09S
6HR MIN TEMP:  77; 6HR MAX TEMP:  84;


$$

LAZ027-028-160700-
CENTRAL LOUISIANA

CITY           SKY/WX    TMP DP  RH WIND       PRES   REMARKS
FORT POLK      MOCLDY    76  73  91 NE3       30.10F
6HR MIN TEMP:  76; 6HR MAX TEMP:  83;

ALEXANDRIA INT MOCLDY    76  73  91 CALM      30.08F
6HR MIN TEMP:  76; 6HR MAX TEMP:  83;

ALEXANDRIA     PTCLDY    75  72  90 CALM      30.10F
6HR MIN TEMP:  75; 6HR MAX TEMP:  83;


$$

LAZ001-002-160700-
NORTHWEST LOUISIANA

CITY           SKY/WX    TMP DP  RH WIND       PRES   REMARKS
SHREVEPORT     CLOUDY    76  70  82 E3        30.10F
6HR MIN TEMP:  74; 6HR MAX TEMP:  83;

BARKSDALE AFB  CLOUDY    73  70  90 E2        30.11F
6HR MIN TEMP:  73; 6HR MAX TEMP:  80;

DTN SHREVEPORT CLOUDY    74  70  87 E3        30.11F
6HR MIN TEMP:  73; 6HR MAX TEMP:  80;


$$

LAZ014-016-160700-
NORTHEAST LOUISIANA

CITY           SKY/WX    TMP DP  RH WIND       PRES   REMARKS
MONROE         CLEAR     73  69  87 CALM      30.12F
6HR MIN TEMP:  72; 6HR MAX TEMP:  80;

TALLULAH       CLEAR     73  69  87 CALM      30.10S
6HR MIN TEMP:  73; 6HR MAX TEMP:  81;


$$




USA.gov is the U.S. government's official web portal to all federal, state and local government web resources and services.